Location: Drocourt
(49.0571°N, 1.7669°E)
Time: 15:08:22
(UTC+00:00)

Vanguard 2 Rocket - Pass Details

Date: 16 April 2024
Orbit: 556 x 3304 km, 32.9° (Epoch: 22 May)

Event Time Altitude Azimuth Distance (km) Brightness Sun altitude
Enters shadow 02:57:56 - 269° (W) 7,278 11.1 -18.1°
Exits shadow 03:02:35 - 263° (W) 6,351 10.7 -17.5°
Reaches altitude 10° 03:03:42 10° 262° (W) 6,129 10.6 -17.4°
Maximum altitude 03:19:02 34° 207° (SSW) 3,675 9.5 -15.4°
Drops below altitude 10° 03:29:47 10° 149° (SSE) 4,288 10.3 -14.0°
Sets 03:33:00 0° 139° (SE) 4,926 10.7 -13.6°
